• en Suisse
  • Liste des pays
  • À 7 jours
  • Température de l'eau
  • Carte satellitaire
  • Carte météo
  • Widgets météo
  • user-avatar
    Se connecter

    Météo par heure à Boma

    Ce jour, 18 Juin, Lundi

    Heure Température Précipitation Vent Pression Humidité
    00:00 +23°C° 0,4 mm 1 m/s 701 mmHg 93%
    01:00 +23°C° 0 mm 1 m/s 701 mmHg 96%
    02:00 +23°C° 0 mm 1 m/s 701 mmHg 95%
    03:00 +23°C° 0 mm 1 m/s 701 mmHg 95%
    04:00 +23°C° 0 mm 1 m/s 701 mmHg 95%
    05:00 +23°C° 0 mm 1 m/s 701 mmHg 94%
    06:00 +23°C° 0 mm 1 m/s 702 mmHg 94%
    07:00 +24°C° 0 mm 1 m/s 702 mmHg 93%
    08:00 +24°C° 0 mm 1 m/s 702 mmHg 89%
    09:00 +25°C° 0 mm 1 m/s 702 mmHg 84%
    10:00 +26°C° 0 mm 1 m/s 702 mmHg 79%
    11:00 +27°C° 0 mm 1 m/s 702 mmHg 75%
    12:00 +28°C° 0 mm 1 m/s 702 mmHg 71%
    13:00 +29°C° 0 mm 1 m/s 701 mmHg 67%
    14:00 +29°C° 0,1 mm 1 m/s 701 mmHg 66%
    15:00 +30°C° 0,1 mm 1 m/s 700 mmHg 65%
    16:00 +30°C° 0,1 mm 1 m/s 699 mmHg 64%
    17:00 +28°C° 0,3 mm 1 m/s 700 mmHg 71%
    18:00 +27°C° 0,3 mm 1 m/s 700 mmHg 78%
    19:00 +25°C° 0,3 mm 1 m/s 700 mmHg 86%
    20:00 +24°C° 1,1 mm 1 m/s 700 mmHg 89%
    21:00 +24°C° 1,1 mm 1 m/s 701 mmHg 92%
    22:00 +23°C° 1,1 mm 2 m/s 701 mmHg 95%
    23:00 +23°C° 2,5 mm 2 m/s 701 mmHg 96%

    Demain, 19 Juin, Mardi

    Heure Température Précipitation Vent Pression Humidité
    00:00 +23°C° 2,5 mm 2 m/s 701 mmHg 97%
    01:00 +21°C° 2,5 mm 2 m/s 701 mmHg 98%
    02:00 +21°C° 1,5 mm 2 m/s 701 mmHg 98%
    03:00 +21°C° 1,5 mm 2 m/s 701 mmHg 98%
    04:00 +21°C° 1,5 mm 2 m/s 701 mmHg 98%
    05:00 +21°C° 1,8 mm 2 m/s 701 mmHg 98%
    06:00 +21°C° 1,8 mm 2 m/s 701 mmHg 98%
    07:00 +21°C° 1,8 mm 2 m/s 701 mmHg 98%
    08:00 +21°C° 0,4 mm 2 m/s 701 mmHg 97%
    09:00 +23°C° 0,4 mm 2 m/s 702 mmHg 97%
    10:00 +23°C° 0,4 mm 2 m/s 702 mmHg 96%
    11:00 +24°C° 0,2 mm 2 m/s 702 mmHg 91%
    12:00 +25°C° 0,2 mm 2 m/s 702 mmHg 86%
    13:00 +26°C° 0,2 mm 2 m/s 702 mmHg 81%
    14:00 +25°C° 0,8 mm 2 m/s 701 mmHg 85%
    15:00 +25°C° 0,8 mm 2 m/s 700 mmHg 89%
    16:00 +25°C° 0,8 mm 1 m/s 700 mmHg 93%
    17:00 +24°C° 1,6 mm 2 m/s 700 mmHg 95%
    18:00 +23°C° 1,6 mm 2 m/s 700 mmHg 96%
    19:00 +21°C° 1,6 mm 2 m/s 700 mmHg 98%
    20:00 +21°C° 1,7 mm 2 m/s 701 mmHg 98%
    21:00 +21°C° 1,7 mm 2 m/s 701 mmHg 98%
    22:00 +21°C° 1,7 mm 2 m/s 702 mmHg 98%
    23:00 +21°C° 1,2 mm 2 m/s 702 mmHg 99%

    Après-demain, 20 Juin, Mercredi

    Heure Température Précipitation Vent Pression Humidité
    00:00 +22°C° 1,2 mm 1 m/s 702 mmHg 99%
    01:00 +21°C° 1,2 mm 1 m/s 701 mmHg 99%
    02:00 +21°C° 1,3 mm 1 m/s 701 mmHg 99%
    03:00 +21°C° 1,3 mm 1 m/s 701 mmHg 99%
    04:00 +21°C° 1,3 mm 1 m/s 701 mmHg 99%
    05:00 +21°C° 1 mm 1 m/s 701 mmHg 99%
    06:00 +21°C° 1 mm 1 m/s 702 mmHg 99%
    07:00 +21°C° 1 mm 1 m/s 702 mmHg 99%
    08:00 +21°C° 0,4 mm 2 m/s 703 mmHg 97%
    09:00 +21°C° 0,4 mm 2 m/s 703 mmHg 95%
    10:00 +23°C° 0,4 mm 2 m/s 704 mmHg 93%
    11:00 +23°C° 0,7 mm 2 m/s 703 mmHg 94%
    12:00 +24°C° 0,7 mm 2 m/s 703 mmHg 94%
    13:00 +24°C° 0,7 mm 1 m/s 703 mmHg 95%
    14:00 +24°C° 0,7 mm 1 m/s 702 mmHg 95%
    15:00 +24°C° 0,7 mm 2 m/s 702 mmHg 95%
    16:00 +23°C° 0,7 mm 2 m/s 701 mmHg 95%
    17:00 +23°C° 0,3 mm 1 m/s 701 mmHg 96%
    18:00 +22°C° 0,3 mm 1 m/s 702 mmHg 97%
    19:00 +22°C° 0,3 mm 1 m/s 702 mmHg 98%
    20:00 +19°C° 0 mm 0 m/s 702 mmHg 98%
    21:00 +19°C° 0 mm 0 m/s 703 mmHg 99%
    22:00 +19°C° 0 mm 0 m/s 703 mmHg 99%
    23:00 +19°C° 0 mm 0 m/s 703 mmHg 99%

    21 Juin, Jeudi

    Heure Température Précipitation Vent Pression Humidité
    00:00 +19°C° 0 mm 0 m/s 703 mmHg 99%
    01:00 +19°C° 0 mm 0 m/s 702 mmHg 99%
    02:00 +19°C° 0 mm 0 m/s 702 mmHg 99%
    03:00 +21°C° 0 mm 1 m/s 702 mmHg 99%
    04:00 +21°C° 0 mm 1 m/s 701 mmHg 99%
    05:00 +21°C° 0 mm 1 m/s 702 mmHg 98%
    06:00 +21°C° 0 mm 1 m/s 702 mmHg 98%
    07:00 +21°C° 0 mm 1 m/s 702 mmHg 97%
    08:00 +22°C° 0 mm 1 m/s 703 mmHg 93%
    09:00 +23°C° 0 mm 1 m/s 703 mmHg 89%
    10:00 +23°C° 0 mm 1 m/s 704 mmHg 85%
    11:00 +25°C° 0,1 mm 1 m/s 703 mmHg 81%
    12:00 +26°C° 0,1 mm 1 m/s 703 mmHg 76%
    13:00 +27°C° 0,1 mm 1 m/s 702 mmHg 71%
    14:00 +27°C° 0,2 mm 1 m/s 702 mmHg 70%
    15:00 +27°C° 0,2 mm 1 m/s 701 mmHg 69%
    16:00 +28°C° 0,2 mm 1 m/s 701 mmHg 68%
    17:00 +26°C° 0,1 mm 1 m/s 701 mmHg 75%
    18:00 +24°C° 0,1 mm 1 m/s 701 mmHg 83%
    19:00 +21°C° 0,1 mm 0 m/s 702 mmHg 90%
    20:00 +20°C° 0,2 mm 0 m/s 702 mmHg 92%
    21:00 +20°C° 0,2 mm 0 m/s 703 mmHg 95%
    22:00 +19°C° 0,2 mm 0 m/s 703 mmHg 97%
    23:00 +19°C° 0 mm 0 m/s 703 mmHg 97%

    22 Juin, Vendredi

    Heure Température Précipitation Vent Pression Humidité
    00:00 +21°C° 0 mm 1 m/s 703 mmHg 98%
    01:00 +20°C° 0 mm 1 m/s 702 mmHg 99%
    02:00 +20°C° 0 mm 1 m/s 702 mmHg 99%
    03:00 +20°C° 0 mm 1 m/s 702 mmHg 99%
    04:00 +20°C° 0 mm 1 m/s 701 mmHg 99%
    05:00 +20°C° 0 mm 1 m/s 702 mmHg 98%
    06:00 +21°C° 0 mm 1 m/s 702 mmHg 97%
    07:00 +21°C° 0 mm 1 m/s 703 mmHg 95%
    08:00 +22°C° 0 mm 1 m/s 703 mmHg 90%
    09:00 +24°C° 0 mm 1 m/s 704 mmHg 84%
    10:00 +25°C° 0 mm 1 m/s 704 mmHg 78%
    11:00 +27°C° 0 mm 1 m/s 703 mmHg 69%
    12:00 +29°C° 0 mm 1 m/s 703 mmHg 60%
    13:00 +31°C° 0 mm 1 m/s 703 mmHg 51%
    14:00 +31°C° 0 mm 1 m/s 702 mmHg 50%
    15:00 +31°C° 0 mm 1 m/s 701 mmHg 49%
    16:00 +31°C° 0 mm 1 m/s 701 mmHg 49%
    17:00 +28°C° 0,1 mm 1 m/s 701 mmHg 58%
    18:00 +26°C° 0,1 mm 1 m/s 701 mmHg 66%
    19:00 +22°C° 0,1 mm 0 m/s 701 mmHg 75%
    20:00 +21°C° 0 mm 0 m/s 702 mmHg 78%
    21:00 +21°C° 0 mm 0 m/s 702 mmHg 81%
    22:00 +20°C° 0 mm 0 m/s 703 mmHg 84%
    23:00 +20°C° 0 mm 0 m/s 702 mmHg 85%

    23 Juin, Samedi

    Heure Température Précipitation Vent Pression Humidité
    00:00 +20°C° 0 mm 0 m/s 702 mmHg 86%
    01:00 +20°C° 0 mm 0 m/s 701 mmHg 87%
    02:00 +19°C° 0 mm 0 m/s 701 mmHg 88%
    03:00 +19°C° 0 mm 0 m/s 701 mmHg 89%
    04:00 +19°C° 0 mm 0 m/s 701 mmHg 90%
    05:00 +19°C° 0 mm 0 m/s 702 mmHg 91%
    06:00 +19°C° 0 mm 0 m/s 702 mmHg 92%
    07:00 +19°C° 0 mm 0 m/s 703 mmHg 93%
    08:00 +21°C° 0 mm 0 m/s 703 mmHg 85%
    09:00 +23°C° 0 mm 0 m/s 703 mmHg 78%
    10:00 +25°C° 0 mm 0 m/s 704 mmHg 70%
    11:00 +28°C° 0,1 mm 1 m/s 703 mmHg 65%
    12:00 +29°C° 0,1 mm 1 m/s 703 mmHg 59%
    13:00 +30°C° 0,1 mm 1 m/s 702 mmHg 54%
    14:00 +29°C° 0,4 mm 1 m/s 701 mmHg 60%
    15:00 +28°C° 0,4 mm 1 m/s 701 mmHg 66%
    16:00 +27°C° 0,4 mm 1 m/s 700 mmHg 72%
    17:00 +26°C° 0,2 mm 1 m/s 701 mmHg 78%
    18:00 +25°C° 0,2 mm 1 m/s 701 mmHg 84%
    19:00 +23°C° 0,2 mm 1 m/s 701 mmHg 89%
    20:00 +21°C° 0 mm 0 m/s 701 mmHg 90%
    21:00 +20°C° 0 mm 0 m/s 702 mmHg 91%
    22:00 +20°C° 0 mm 0 m/s 702 mmHg 93%
    23:00 +20°C° 0 mm 0 m/s 701 mmHg 93%
    Voir plus